Regional Weather Roundup
Issued by NWS

Home | Current Version | Previous Version | Graphics & Text | Print | Product List | Glossary On
Versions: 1 2 3 4 5 6 7 8 9 10 11 12 13 14 15 16 17 18 19 20 21 22 23 24 25 26 27 28 29 30 31 32 33 34 35 36 37 38 39 40 41 42 43 44 45 46 47 48 49 50
000
ASUS45 KCYS 111010
RWRWY

WYOMING REGIONAL WEATHER ROUNDUP
NATIONAL WEATHER SERVICE CHEYENNE WY
400 AM MDT FRI JUL 11 2014

NOTE:  "FAIR" INDICATES FEW OR NO CLOUDS BELOW 12,000 FEET
WITH NO SIGNIFICANT WEATHER AND/OR OBSTRUCTIONS TO VISIBILITY.

WYZ001-111100-
YELLOWSTONE NATIONAL PARK

CITY           SKY/WX    TMP DP  RH WIND       PRES   REMARKS
LK YELLOWSTONE   N/A     44  41  89 CALM      30.29R
W YELLOWSTONE  NOT AVBL

$$
WYZ002>013-054>058-071-098>099-111100-
NORTHERN WYOMING

CITY           SKY/WX    TMP DP  RH WIND       PRES   REMARKS
JACKSON        PTCLDY    48  46  93 N5        30.18R
CODY           CLEAR     66  52  59 SW14      30.03F
GREYBULL         N/A     68  48  48 CALM      29.96F
WORLAND        PTCLDY    70  53  54 S13G22    29.99R
SHERIDAN       MOCLDY    58  53  84 NW5       29.95S
BUFFALO        MOCLDY    66  52  60 W8        30.03R
GILLETTE       CLEAR     62  56  80 S7        29.99S
HULETT         FAIR      63  55  77 MISG      30.00
NEWCASTLE      FAIR      61  55  82 CALM      30.00

$$
WYZ014>020-022>026-101>103-111100-
CENTRAL WYOMING

CITY           SKY/WX    TMP DP  RH WIND       PRES   REMARKS
BIG PINEY      MOCLDY    54  50  86 N6        30.22S
PINEDALE       MOSUNNY   50  46  87 W5        30.24R
DUBOIS         FAIR      54  43  66 NW6       30.21R
LANDER         MOCLDY    65  52  62 SW10      30.08R
RIVERTON       PTCLDY    65  52  62 N3        30.08R
CASPER         MOCLDY    66  54  65 SW9       30.08R
DOUGLAS        MOCLDY    63  61  93 S6        30.06R

$$
WYZ021-027>030-104>119-111100-
SOUTHERN WYOMING

CITY           SKY/WX    TMP DP  RH WIND       PRES   REMARKS
EVANSTON       LGT RAIN  56  55  97 SE6       30.22F
KEMMERER       CLOUDY    57  52  82 N3        30.23S
FORT BRIDGER   CLOUDY    60  54  78 W10G17    30.24S
ROCK SPRINGS   CLOUDY    60  54  80 SW5       30.23R
DIXON          FAIR      61  56  83 E7        30.23S
RAWLINS        MOCLDY    60  53  77 CALM      30.20S
SARATOGA       FAIR      59  54  82 SE9       30.23F
LARAMIE        MOCLDY    59  52  77 SW10      30.23S
CHEYENNE       PTCLDY    61  55  81 W6        30.15S
TORRINGTON     MOCLDY    65  64  97 CALM      30.02R

$$



USA.gov is the U.S. government's official web portal to all federal, state and local government web resources and services.